NOAA 16 DEB, 41360

Orbit data source: Space-Track

NOAA 16 DEB, 41360 is space debris in SSO originally from a launch on Thu, 21 Sep 2000 UTC launched from the Air Force Western Test Range (AFWTR). Debris objects in space refer to the collection of defunct objects orbiting the Earth. Examples of debris include non-operational satellites, rocket bodies, and fragments generated from explosions, collisions, or faulty payload assembly.

Loading next visibility...
Identifier
41360, 2000-055JD
Orbit
SSO
Last TLE update
1 day ago
Origin
Manufacturer
Unknown
Mission
Spacecraft
Bus & Motor
Unknown
Mass
Unknown
Launch date (UTC)
2000-09-21 (25 years ago)
Launch vehicle
Unknown
Launch site
Air Force Western Test Range (AFWTR)
Object type
Payload
Rocket body
Debris
Shape & HBR
Unknown
Radar Cross Section
Small (<0.1 m²)

Expand to show TLE details & history

TLE from 1 day ago
0 NOAA 16 DEB
1 41360U 00055JD  25185.54552754  .00003343  00000-0  13293-2 0  9995
2 41360  98.8801 298.9678 0021375 304.3994  55.5165 14.29262886487508
Epoch: 2025-07-04T13:05Z
TLE epoch observation values (Epoch: 2025-07-04T13:05:33.579Z)
Latitude
-0.00011°
Longitude
179.78152°
Altitude
788.458 km
Speed
7.464 km/s
True Right ascension
19h 55m 52s
True Declination
0° 00' 00"
Sunlit
Object was in full shadow at epoch
Visualization orbit readout
Latitude
54.05144°
Longitude
13.60741°
Altitude
818.297 km
Speed
7.441 km/s
Apparent Right ascension
03h 10m 47s
Apparent Declination
31° 14' 57"
Sunlit
Object is in daylight
Visualization observer readout
Local Sidereal Time
11:13:06
Azimuth
312.605° NW
Elevation
-0.04°
Doppler factor
1
Orbital elements
Apogee altitude
806.675 km
Perigee altitude
776.025 km
Semi-major axis
7,169.487 km
Eccentricity
0.00214
Inclination
98.8801°
RAAN
298.9678°
Arg. of periapsis
304.3994°
True anomaly
Unknown
Mean anomaly
55.5165°
Eccentric anomaly
Unknown
Mean motion
3.57529 °/min
Orbital period
100.69 mins
BSTAR
0.0013293
Loading maneuver chart data...
Loading SW <> Apogee altitude chart data...
Loading historical data...
Loading historical data...
Loading historical data...
Loading historical data...
Loading historical data...
Loading historical data...
Loading historical data...

NOAA 16 DEB Visibility forecast

Observer location: undefined°, undefined°

Span
Click to sort rows by Start time (UTC) header in descending order
Start Az.
Max El. time (UTC)
Max El. Az.
Max El.
End time (UTC)
End Az.
9 mins2025-07-06 07:12:46.385Z150.581° SSE2025-07-06 07:17:46.385Z46.746° ENE40.602°2025-07-06 07:21:46.385Z354.876° N
4 mins2025-07-06 08:55:46.385Z249.33° W2025-07-06 08:56:46.385Z262.145° W14.74°2025-07-06 08:59:46.385Z299.347° NW
6 mins2025-07-06 19:28:46.385Z59.682° ENE2025-07-06 19:30:46.385Z89.023° E21.169°2025-07-06 19:34:46.385Z142.751° SSE
7 mins2025-07-06 21:07:46.385Z348.817° N2025-07-06 21:10:46.385Z289.732° WNW34.221°2025-07-06 21:14:46.385Z224.676° SW
|